User: anonymous   Login
Location: Castelbiague
(43.0361°N, 0.9246°E)
Time: 10:52:52
(UTC+00:00)
Language:

FENGYUN 1C DEB - Orbit

View from above orbital plane
View from above orbital plane
View from above satellite
View from above satellite

Ground track
Ground track

The orbit data is extracted from the following two-line orbital elements,

1 31742U 99025CER 22226.89176379  .00000684  00000-0  26334-3 0  9995
2 31742  98.9344  24.6021 0085233 296.8116  62.4368 14.31770129794177
Epoch (UTC): 14 August 2022 21:24:08
Eccentricity: 0.0085233
inclination: 98.9344°
perigee height: 725 km
apogee height: 847 km
right ascension of ascending node: 24.6021°
argument of perigee: 296.8116°
revolutions per day: 14.31770129
mean anomaly at epoch: 62.4368°
orbit number at epoch: 79417

The dashed part of the orbit path shows where the satellite is in the earth's shadow,  

DLR